CW1675 Weather Reports


Display with metric or nautical units.
time (UTC)temp
F
wind
direction
speed
MPH
gust
MPH
rain 1hr
in
rain 24hr
in
rain mn
in
humidity
%
barometer
mb
20260902140907 71 241 3.0 15.0 0.00 0.00 0.00 57 1022.3
20260902132406 69 257 5.0 8.0 0.00 0.00 0.00 56 1022.4
20260902131907 69 298 3.0 8.0 0.00 0.00 0.00 55 1022.4
20260902125908 69 267 4.0 9.0 0.00 0.00 0.00 55 1022.4
20260902125406 69 312 5.0 6.0 0.00 0.00 0.00 54 1022.5
20260902124907 69 285 3.0 8.0 0.00 0.00 0.00 53 1022.5
20260902124407 69 12 3.0 8.0 0.00 0.00 0.00 55 1022.5
20260902123407 69 280 2.0 7.0 0.00 0.00 0.00 57 1022.5
20260902122908 69 301 3.0 7.0 0.00 0.00 0.00 57 1022.5
20260902122406 69 307 3.0 6.0 0.00 0.00 0.00 56 1022.5
20260902121907 69 181 3.0 6.0 0.00 0.00 0.00 57 1022.5
20260902121406 69 249 3.0 8.0 0.00 0.00 0.00 59 1022.5
20260902120407 68 302 5.0 8.0 0.00 0.00 0.00 61 1022.6
20260902114907 68 290 6.0 12.0 0.00 0.00 0.00 61 1022.8
20260902113907 68 200 5.0 9.0 0.00 0.00 0.00 63 1022.6
20260902113407 68 241 5.0 10.0 0.00 0.00 0.00 64 1022.6
20260902112407 67 192 6.0 9.0 0.00 0.00 0.00 63 1022.6
20260902111907 68 259 6.0 13.0 0.00 0.00 0.00 62 1022.6
20260902110907 68 224 5.0 10.0 0.00 0.00 0.00 62 1022.8
20260902104906 67 242 6.0 10.0 0.00 0.00 0.00 65 1022.9
20260902103907 66 212 6.0 17.0 0.00 0.00 0.00 66 1023.0
20260902103407 66 223 7.0 12.0 0.00 0.00 0.00 67 1023.0
20260902102909 66 221 5.0 13.0 0.00 0.00 0.00 67 1023.0
20260902102406 66 210 5.0 13.0 0.00 0.00 0.00 68 1023.0
20260902094407 64 227 5.0 10.0 0.00 0.00 0.00 73 1022.9
20260902093407 64 252 6.0 12.0 0.00 0.00 0.00 74 1023.0
20260902092909 63 256 6.0 10.0 0.00 0.00 0.00 76 1023.0
20260902092406 63 255 6.0 12.0 0.00 0.00 0.00 76 1023.0
20260902091907 63 239 5.0 9.0 0.00 0.00 0.00 79 1023.0
20260902090406 62 246 6.0 12.0 0.00 0.00 0.00 80 1023.0
20260902085907 62 237 6.0 10.0 0.00 0.00 0.00 80 1023.0
20260902085407 62 234 6.0 10.0 0.00 0.00 0.00 79 1022.9
20260902084906 62 224 5.0 9.0 0.00 0.00 0.00 82 1022.9
20260902084406 62 229 5.0 9.0 0.00 0.00 0.00 81 1022.9
20260902083906 61 219 5.0 12.0 0.00 0.00 0.00 81 1022.9
20260902083406 61 248 5.0 8.0 0.00 0.00 0.00 82 1022.9
20260902082907 61 232 5.0 7.0 0.00 0.00 0.00 82 1022.9
20260902081407 61 284 5.0 7.0 0.00 0.00 0.00 83 1022.8
20260902075908 60 219 3.0 8.0 0.00 0.00 0.00 84 1022.6
20260902072908 59 253 2.0 7.0 0.00 0.00 0.00 87 1022.5
20260902072406 58 279 2.0 5.0 0.00 0.01 0.00 89 1022.4
20260902071906 58 259 2.0 3.0 0.00 0.01 0.00 90 1022.4
20260902070907 57 327 1.0 8.0 0.00 0.01 0.00 94 1022.5
20260902065909 56 53 0.0 2.0 0.00 0.01 0.00 96 1022.5
20260902065407 56 95 0.0 2.0 0.00 0.01 0.00 97 1022.5
20260902064406 55 75 0.0 0.0 0.00 0.01 0.00 96 1022.5
20260902062908 55 248 0.0 1.0 0.00 0.01 0.00 96 1022.4
20260902062407 54 279 0.0 2.0 0.00 0.01 0.00 96 1022.2
20260902061906 54 2 0.0 0.0 0.00 0.01 0.00 97 1022.2
20260902060406 53 126 0.0 2.0 0.00 0.01 0.00 96 1022.3
20260902054406 53 283 0.0 2.0 0.00 0.01 0.00 96 1022.2
20260902053407 53 151 0.0 0.0 0.00 0.01 0.00 96 1022.1
20260902052406 53 70 0.0 1.0 0.00 0.01 0.00 96 1022.0
20260902051406 53 175 0.0 1.0 0.00 0.01 0.00 95 1022.0
20260902050906 53 177 0.0 0.0 0.00 0.01 0.00 95 1021.8
20260902050406 53 182 0.0 1.0 0.00 0.01 0.00 95 1021.8
20260902045906 53 181 0.0 0.0 0.00 0.01 0.00 95 1021.8
20260902045406 53 181 0.0 0.0 0.00 0.01 0.00 95 1021.7
20260902044406 53 249 0.0 1.0 0.00 0.01 0.00 95 1021.7
20260902043906 53 253 0.0 0.0 0.00 0.01 0.00 95 1021.7
20260902042908 53 251 0.0 2.0 0.00 0.01 0.00 95 1021.7
20260902042406 53 280 0.0 2.0 0.00 0.01 0.00 95 1021.7
20260902040906 53 222 0.0 0.0 0.00 0.01 0.00 95 1021.7
20260902040406 53 222 0.0 1.0 0.00 0.01 0.00 95 1021.7
20260902035908 54 220 0.0 2.0 0.00 0.01 0.00 95 1021.7
20260902035406 54 268 0.0 0.0 0.00 0.01 0.00 95 1021.8
20260902034906 54 268 0.0 1.0 0.00 0.01 0.00 96 1021.8
20260902033406 53 269 0.0 2.0 0.00 0.01 0.00 96 1021.9
20260902032406 53 158 0.0 0.0 0.00 0.01 0.00 96 1021.9
20260902031907 53 158 0.0 0.0 0.00 0.01 0.00 95 1021.9
20260902031406 53 158 0.0 0.0 0.00 0.01 0.00 95 1021.9
20260902030906 53 158 0.0 0.0 0.00 0.01 0.00 95 1021.9
20260902030406 53 210 0.0 1.0 0.00 0.01 0.00 95 1021.9
20260902024906 53 284 0.0 2.0 0.00 0.01 0.00 96 1021.8
20260902023906 53 147 0.0 3.0 0.00 0.01 0.00 95 1021.6
20260902023407 53 126 0.0 2.0 0.00 0.01 0.00 95 1021.6
20260902022407 53 138 0.0 0.0 0.00 0.01 0.00 95 1022.0
20260902021906 53 138 0.0 2.0 0.00 0.01 0.00 95 1022.0
20260902021406 53 110 0.0 2.0 0.00 0.01 0.00 95 1022.0
20260902015406 53 111 0.0 0.0 0.00 0.01 0.00 95 1022.2
20260902014906 53 111 0.0 0.0 0.00 0.01 0.00 95 1022.2
20260902014406 53 111 0.0 0.0 0.00 0.01 0.00 95 1022.2
20260902013406 53 111 0.0 0.0 0.00 0.01 0.00 95 1022.2
20260902011905 54 110 0.0 0.0 0.00 0.01 0.00 95 1022.0
20260902005406 53 113 0.0 0.0 0.00 0.01 0.00 95 1022.2
20260902002406 53 113 0.0 0.0 0.00 0.01 0.00 93 1022.1
20260902001906 53 113 0.0 0.0 0.00 0.01 0.00 93 1022.1
20260902001406 53 113 0.0 0.0 0.00 0.01 0.00 93 1022.1
20260901233406 54 113 0.0 0.0 0.00 0.01 0.00 93 1022.1
20260901232907 55 113 0.0 0.0 0.00 0.01 0.00 92 1022.1
20260901232406 55 113 0.0 0.0 0.00 0.01 0.00 92 1022.2
20260901225406 56 112 0.0 0.0 0.00 0.01 0.00 91 1022.2
20260901224906 56 112 0.0 0.0 0.00 0.01 0.00 91 1022.2
20260901224407 57 111 0.0 1.0 0.00 0.01 0.00 92 1022.2
20260901223905 57 161 0.0 0.0 0.00 0.01 0.00 92 1022.3
20260901221906 57 161 0.0 0.0 0.00 0.01 0.00 93 1022.4
20260901221406 57 161 0.0 0.0 0.00 0.01 0.00 93 1022.4
20260901220406 57 161 0.0 0.0 0.00 0.01 0.00 93 1022.6
20260901215908 57 161 0.0 0.0 0.00 0.01 0.00 92 1022.6
20260901214906 57 162 0.0 0.0 0.00 0.01 0.01 92 1022.5
20260901212406 58 250 0.0 0.0 0.00 0.01 0.01 92 1022.4
20260901211407 58 250 0.0 0.0 0.00 0.01 0.01 92 1022.4
20260901210908 58 250 0.0 0.0 0.00 0.01 0.01 91 1022.4
20260901204908 58 250 0.0 0.0 0.00 0.01 0.01 91 1022.4
20260901204409 58 250 0.0 0.0 0.00 0.01 0.01 90 1022.4
20260901203406 58 250 0.0 0.0 0.00 0.01 0.01 90 1022.3
20260901202906 58 250 0.0 0.0 0.00 0.01 0.01 90 1022.3
20260901202406 58 250 0.0 0.0 0.00 0.01 0.01 89 1022.2
20260901195907 60 265 0.0 2.0 0.00 0.01 0.01 88 1022.2
20260901194406 60 178 0.0 2.0 0.00 0.01 0.01 89 1022.1
20260901193406 60 161 0.0 0.0 0.00 0.01 0.01 88 1022.1
20260901192906 60 161 0.0 0.0 0.00 0.01 0.01 88 1022.1
20260901192405 60 161 0.0 0.0 0.00 0.01 0.01 87 1022.1
20260901191905 60 161 0.0 1.0 0.00 0.01 0.01 86 1022.1
20260901190906 60 152 0.0 0.0 0.00 0.01 0.01 85 1022.0
20260901185406 61 149 0.0 0.0 0.00 0.01 0.01 82 1021.9
20260901184406 62 149 0.0 1.0 0.00 0.01 0.01 81 1021.9
20260901183906 62 149 0.0 2.0 0.00 0.01 0.01 80 1021.8
20260901183406 63 149 0.0 0.0 0.00 0.01 0.01 80 1021.8
20260901182405 64 150 0.0 2.0 0.00 0.04 0.01 76 1021.8
20260901181905 65 159 0.0 1.0 0.00 0.06 0.01 77 1021.8
20260901181406 65 52 0.0 1.0 0.00 0.06 0.01 76 1021.8
20260901175406 67 41 0.0 0.0 0.00 0.07 0.01 71 1021.7
20260901174905 68 41 0.0 0.0 0.00 0.07 0.01 69 1021.7
20260901173906 69 334 2.0 3.0 0.00 0.08 0.01 67 1021.6
20260901172906 70 306 3.0 2.0 0.00 0.08 0.01 64 1021.6
20260901171406 71 325 2.0 7.0 0.00 0.08 0.01 61 1021.7
20260901170905 71 289 2.0 8.0 0.00 0.08 0.01 60 1021.6
20260901170406 71 268 2.0 5.0 0.00 0.08 0.01 61 1021.6
20260901165406 71 299 3.0 6.0 0.00 0.08 0.01 61 1021.6
20260901164906 71 312 3.0 8.0 0.00 0.08 0.01 60 1021.6
20260901164406 71 310 3.0 5.0 0.00 0.08 0.01 61 1021.6
20260901163405 72 344 2.0 7.0 0.00 0.08 0.01 60 1021.5
20260901161906 72 310 5.0 8.0 0.00 0.08 0.01 59 1021.5
20260901160906 72 314 6.0 8.0 0.00 0.08 0.01 57 1021.5
20260901155907 72 347 4.0 12.0 0.00 0.09 0.01 57 1021.5
20260901154406 71 251 2.0 8.0 0.00 0.09 0.01 62 1021.6
20260901153905 70 298 2.0 6.0 0.00 0.09 0.01 62 1021.6
20260901150405 71 331 5.0 8.0 0.00 0.09 0.01 60 1021.5
20260901144906 71 301 3.0 6.0 0.00 0.09 0.01 58 1021.5
20260901144405 71 245 3.0 12.0 0.00 0.09 0.01 58 1021.5
20260901143405 71 274 5.0 9.0 0.00 0.09 0.01 58 1021.7